HULIANWANG DIGUI-126

Last updated on Fri Dec 19 2025 00:02:10 GMT+0000 (Coordinated Universal Time)

1 67066U 25295H 25352.51887080 .00000170 00000+0 13725-3 0 9990 2 67066 50.0014 347.8083 0011435 270.5258 89.4345 14.26096110 949
UTC large
Height (km)
Speed (km/s)
/
Latitude / Longitude
Inclination (degrees)
Orbital Period (minutes)
Azimuth
Elevation
Range (km)
Doppler Factor

Next 0 passes for location: London (51.5072 / 0.1276)

Sorry there are no passes over London.